owner,sensor,date,latitude,longitude,vertical_datum,direction_of_sea_water_velocity,sea_water_speed,upward_sea_water_velocity,qcFlag 
TABS,ioos:station:wmo:42043:1,2011-02-01T00:00:00Z,28.9818,-94.9186,2.0,251.2454809,2.270550594,-99999.0,'11133222,11111222,99999999' 
TABS,ioos:station:wmo:42043:1,2011-02-01T00:30:00Z,28.9818,-94.9186,2.0,289.4751507,3.659357867,-99999.0,'11133222,11111222,99999999' 
TABS,ioos:station:wmo:42043:1,2011-02-01T01:00:00Z,28.9818,-94.9186,2.0,282.8096397,5.09684216,-99999.0,'11133222,11111222,99999999' 
TABS,ioos:station:wmo:42043:1,2011-02-01T01:30:00Z,28.9818,-94.9186,2.0,294.4655104,6.712711822,-99999.0,'11133222,11111222,99999999' 
TABS,ioos:station:wmo:42043:1,2011-02-01T02:00:00Z,28.9818,-94.9186,2.0,291.3453087,7.22563492,-99999.0,'11133222,11111222,99999999' 
TABS,ioos:station:wmo:42043:1,2011-02-01T02:30:00Z,28.9818,-94.9186,2.0,298.3553164,12.1701479,-99999.0,'11111222,11111222,99999999' 
TABS,ioos:station:wmo:42043:1,2011-02-01T03:00:00Z,28.9818,-94.9186,2.0,314.7015145,10.84716553,-99999.0,'11111222,11111222,99999999' 
TABS,ioos:station:wmo:42043:1,2011-02-01T03:30:00Z,28.9818,-94.9186,2.0,316.3189084,13.82759921,-99999.0,'11111222,11111222,99999999' 
TABS,ioos:station:wmo:42043:1,2011-02-01T04:00:00Z,28.9818,-94.9186,2.0,312.7964954,12.68780911,-99999.0,'11111222,11111222,99999999' 
TABS,ioos:station:wmo:42043:1,2011-02-01T04:30:00Z,28.9818,-94.9186,2.0,318.4316173,13.94085363,-99999.0,'11111222,11111222,99999999' 
TABS,ioos:station:wmo:42043:1,2011-02-01T05:00:00Z,28.9818,-94.9186,2.0,320.0502939,15.74474516,-99999.0,'11111222,11111222,99999999' 
TABS,ioos:station:wmo:42043:1,2011-02-01T05:30:00Z,28.9818,-94.9186,2.0,325.3154486,17.57277724,-99999.0,'11111222,11111222,99999999' 
TABS,ioos:station:wmo:42043:1,2011-02-01T06:00:00Z,28.9818,-94.9186,2.0,319.9138942,17.50157136,-99999.0,'11111222,11111222,99999999' 
TABS,ioos:station:wmo:42043:1,2011-02-01T06:30:00Z,28.9818,-94.9186,2.0,324.4752221,15.85036593,-99999.0,'11111222,11111222,99999999' 
TABS,ioos:station:wmo:42043:1,2011-02-01T07:00:00Z,28.9818,-94.9186,2.0,313.226239,15.98827696,-99999.0,'11111222,11111222,99999999' 
TABS,ioos:station:wmo:42043:1,2011-02-01T07:30:00Z,28.9818,-94.9186,2.0,305.7398096,14.19276224,-99999.0,'11111222,11111222,99999999' 
TABS,ioos:station:wmo:42043:1,2011-02-01T08:00:00Z,28.9818,-94.9186,2.0,305.309359,17.76859308,-99999.0,'11111222,11111222,99999999' 
TABS,ioos:station:wmo:42043:1,2011-02-01T08:30:00Z,28.9818,-94.9186,2.0,296.7902078,18.2375108,-99999.0,'11111222,11111222,99999999' 
TABS,ioos:station:wmo:42043:1,2011-02-01T09:00:00Z,28.9818,-94.9186,2.0,286.5221267,16.38657072,-99999.0,'11111222,11111222,99999999' 
TABS,ioos:station:wmo:42043:1,2011-02-01T09:30:00Z,28.9818,-94.9186,2.0,288.3751,18.05029086,-99999.0,'11111222,11111222,99999999' 
TABS,ioos:station:wmo:42043:1,2011-02-01T10:00:00Z,28.9818,-94.9186,2.0,282.6936361,17.38487849,-99999.0,'11111222,11111222,99999999' 
TABS,ioos:station:wmo:42043:1,2011-02-01T10:30:00Z,28.9818,-94.9186,2.0,283.1597259,16.1644672,-99999.0,'11111222,11111222,99999999' 
TABS,ioos:station:wmo:42043:1,2011-02-01T11:00:00Z,28.9818,-94.9186,2.0,278.0608342,15.11936837,-99999.0,'11111222,11111222,99999999' 
TABS,ioos:station:wmo:42043:1,2011-02-01T11:30:00Z,28.9818,-94.9186,2.0,275.5726057,16.06591734,-99999.0,'11111222,11111222,99999999' 
TABS,ioos:station:wmo:42043:1,2011-02-01T12:00:00Z,28.9818,-94.9186,2.0,284.0886712,18.69222833,-99999.0,'11111222,11111222,99999999' 
TABS,ioos:station:wmo:42043:1,2011-02-01T12:30:00Z,28.9818,-94.9186,2.0,289.605215,19.67030503,-99999.0,'11111222,11111222,99999999' 
TABS,ioos:station:wmo:42043:1,2011-02-01T13:00:00Z,28.9818,-94.9186,2.0,297.742371,19.37738114,-99999.0,'11111222,11111222,99999999' 
TABS,ioos:station:wmo:42043:1,2011-02-01T13:30:00Z,28.9818,-94.9186,2.0,299.3219104,18.97039009,-99999.0,'11111222,11111222,99999999' 
TABS,ioos:station:wmo:42043:1,2011-02-01T14:00:00Z,28.9818,-94.9186,2.0,310.8697025,19.24085757,-99999.0,'11111222,11111222,99999999' 
TABS,ioos:station:wmo:42043:1,2011-02-01T14:30:00Z,28.9818,-94.9186,2.0,202.3220032,5.923926063,-99999.0,'11133222,11111222,99999999' 
TABS,ioos:station:wmo:42043:1,2011-02-01T15:00:00Z,28.9818,-94.9186,2.0,185.4111119,11.24009342,-99999.0,'11111222,11111222,99999999' 
TABS,ioos:station:wmo:42043:1,2011-02-01T15:30:00Z,28.9818,-94.9186,2.0,192.0369637,16.68690505,-99999.0,'11111222,11111222,99999999' 
TABS,ioos:station:wmo:42043:1,2011-02-01T16:00:00Z,28.9818,-94.9186,2.0,184.0336407,24.45057259,-99999.0,'11111222,11111222,99999999' 
TABS,ioos:station:wmo:42043:1,2011-02-01T16:30:00Z,28.9818,-94.9186,2.0,184.8417146,32.81711291,-99999.0,'11111222,11111222,99999999' 
TABS,ioos:station:wmo:42043:1,2011-02-01T17:00:00Z,28.9818,-94.9186,2.0,184.3380462,31.99166141,-99999.0,'11111222,11111222,99999999' 
TABS,ioos:station:wmo:42043:1,2011-02-01T17:30:00Z,28.9818,-94.9186,2.0,181.6939556,35.51552477,-99999.0,'11111222,11111222,99999999' 
TABS,ioos:station:wmo:42043:1,2011-02-01T18:00:00Z,28.9818,-94.9186,2.0,185.7669036,30.25312546,-99999.0,'11111222,11111222,99999999' 
TABS,ioos:station:wmo:42043:1,2011-02-01T18:30:00Z,28.9818,-94.9186,2.0,186.6084741,29.4557244,-99999.0,'11111222,11111222,99999999' 
TABS,ioos:station:wmo:42043:1,2011-02-01T19:00:00Z,28.9818,-94.9186,2.0,186.4510474,28.4803441,-99999.0,'11111222,11111222,99999999' 
TABS,ioos:station:wmo:42043:1,2011-02-01T19:30:00Z,28.9818,-94.9186,2.0,187.1153236,22.52346776,-99999.0,'11111222,11111222,99999999' 
TABS,ioos:station:wmo:42043:1,2011-02-01T20:00:00Z,28.9818,-94.9186,2.0,181.9818659,24.86487683,-99999.0,'11111222,11111222,99999999' 
TABS,ioos:station:wmo:42043:1,2011-02-01T20:30:00Z,28.9818,-94.9186,2.0,179.5416632,20.01063967,-99999.0,'11111222,11111222,99999999' 
TABS,ioos:station:wmo:42043:1,2011-02-01T21:00:00Z,28.9818,-94.9186,2.0,186.0735748,18.05133236,-99999.0,'11111222,11111222,99999999' 
TABS,ioos:station:wmo:42043:1,2011-02-01T21:30:00Z,28.9818,-94.9186,2.0,172.5410056,15.32971298,-99999.0,'11111222,11111222,99999999' 
TABS,ioos:station:wmo:42043:1,2011-02-01T22:00:00Z,28.9818,-94.9186,2.0,174.1036141,13.82312917,-99999.0,'11111222,11111222,99999999' 
TABS,ioos:station:wmo:42043:1,2011-02-01T22:30:00Z,28.9818,-94.9186,2.0,168.5801079,15.3539604,-99999.0,'11111222,11111222,99999999' 
TABS,ioos:station:wmo:42043:1,2011-02-01T23:00:00Z,28.9818,-94.9186,2.0,181.2165053,5.651274193,-99999.0,'11133222,11111222,99999999' 
TABS,ioos:station:wmo:42043:1,2011-02-01T23:30:00Z,28.9818,-94.9186,2.0,129.3394229,7.240725102,-99999.0,'11133222,11111222,99999999' 
TABS,ioos:station:wmo:42043:1,2011-02-02T00:00:00Z,28.9818,-94.9186,2.0,123.5401574,5.302952008,-99999.0,'11133222,11111222,99999999' 
TABS,ioos:station:wmo:42043:1,2011-02-02T00:30:00Z,28.9818,-94.9186,2.0,92.76803487,8.489905771,-99999.0,'11133222,11111222,99999999' 
TABS,ioos:station:wmo:42043:1,2011-02-02T01:00:00Z,28.9818,-94.9186,2.0,117.5744995,10.15332458,-99999.0,'11111222,11111222,99999999' 
TABS,ioos:station:wmo:42043:1,2011-02-02T01:30:00Z,28.9818,-94.9186,2.0,61.78037172,10.53179947,-99999.0,'11111222,11111222,99999999' 
TABS,ioos:station:wmo:42043:1,2011-02-02T02:00:00Z,28.9818,-94.9186,2.0,63.27809838,11.43082237,-99999.0,'11111222,11111222,99999999' 
TABS,ioos:station:wmo:42043:1,2011-02-02T02:30:00Z,28.9818,-94.9186,2.0,82.31723506,15.03496259,-99999.0,'11111222,11111222,99999999' 
TABS,ioos:station:wmo:42043:1,2011-02-02T03:00:00Z,28.9818,-94.9186,2.0,86.54164143,8.786000228,-99999.0,'11133222,11111222,99999999' 
TABS,ioos:station:wmo:42043:1,2011-02-02T03:30:00Z,28.9818,-94.9186,2.0,63.36245423,10.59449857,-99999.0,'11111222,11111222,99999999' 
TABS,ioos:station:wmo:42043:1,2011-02-02T04:00:00Z,28.9818,-94.9186,2.0,71.28830588,13.74658139,-99999.0,'11111222,11111222,99999999' 
TABS,ioos:station:wmo:42043:1,2011-02-02T04:30:00Z,28.9818,-94.9186,2.0,79.38555609,13.57223637,-99999.0,'11111222,11111222,99999999' 
TABS,ioos:station:wmo:42043:1,2011-02-02T05:00:00Z,28.9818,-94.9186,2.0,65.75443128,13.14990874,-99999.0,'11111222,11111222,99999999' 
TABS,ioos:station:wmo:42043:1,2011-02-02T05:30:00Z,28.9818,-94.9186,2.0,70.7555015,17.23297131,-99999.0,'11111222,11111222,99999999' 
TABS,ioos:station:wmo:42043:1,2011-02-02T06:00:00Z,28.9818,-94.9186,2.0,70.0805205,10.00880612,-99999.0,'11111222,11111222,99999999' 
TABS,ioos:station:wmo:42043:1,2011-02-02T06:30:00Z,28.9818,-94.9186,2.0,70.51550288,15.709669,-99999.0,'11111222,11111222,99999999' 
TABS,ioos:station:wmo:42043:1,2011-02-02T07:00:00Z,28.9818,-94.9186,2.0,78.60277213,18.0152491,-99999.0,'11111222,11111222,99999999' 
TABS,ioos:station:wmo:42043:1,2011-02-02T07:30:00Z,28.9818,-94.9186,2.0,72.70511237,20.82139525,-99999.0,'11111222,11111222,99999999' 
TABS,ioos:station:wmo:42043:1,2011-02-02T08:00:00Z,28.9818,-94.9186,2.0,78.98619286,21.25142819,-99999.0,'11111222,11111222,99999999' 
TABS,ioos:station:wmo:42043:1,2011-02-02T08:30:00Z,28.9818,-94.9186,2.0,77.19308957,18.99248536,-99999.0,'11111222,11111222,99999999' 
TABS,ioos:station:wmo:42043:1,2011-02-02T09:00:00Z,28.9818,-94.9186,2.0,69.99504971,17.8893963,-99999.0,'11111222,11111222,99999999' 
TABS,ioos:station:wmo:42043:1,2011-02-02T09:30:00Z,28.9818,-94.9186,2.0,81.56589052,17.59023593,-99999.0,'11111222,11111222,99999999' 
TABS,ioos:station:wmo:42043:1,2011-02-02T10:00:00Z,28.9818,-94.9186,2.0,87.30747924,15.32692076,-99999.0,'11111222,11111222,99999999' 
TABS,ioos:station:wmo:42043:1,2011-02-02T10:30:00Z,28.9818,-94.9186,2.0,76.91121511,16.86823346,-99999.0,'11111222,11111222,99999999' 
TABS,ioos:station:wmo:42043:1,2011-02-02T11:00:00Z,28.9818,-94.9186,2.0,95.02186739,11.42385224,-99999.0,'11111222,11111222,99999999' 
TABS,ioos:station:wmo:42043:1,2011-02-02T11:30:00Z,28.9818,-94.9186,2.0,102.9259689,10.63960996,-99999.0,'11111222,11111222,99999999' 
TABS,ioos:station:wmo:42043:1,2011-02-02T12:00:00Z,28.9818,-94.9186,2.0,100.2521237,12.64183926,-99999.0,'11111222,11111222,99999999' 
TABS,ioos:station:wmo:42043:1,2011-02-02T12:30:00Z,28.9818,-94.9186,2.0,92.36521483,9.207844482,-99999.0,'11133222,11111222,99999999' 
TABS,ioos:station:wmo:42043:1,2011-02-02T13:00:00Z,28.9818,-94.9186,2.0,93.65677854,5.33085359,-99999.0,'11133222,11111222,99999999' 
TABS,ioos:station:wmo:42043:1,2011-02-02T13:30:00Z,28.9818,-94.9186,2.0,94.53273398,7.212558492,-99999.0,'11133222,11111222,99999999' 
TABS,ioos:station:wmo:42043:1,2011-02-02T14:00:00Z,28.9818,-94.9186,2.0,94.92106781,8.160079656,-99999.0,'11133222,11111222,99999999' 
TABS,ioos:station:wmo:42043:1,2011-02-02T14:30:00Z,28.9818,-94.9186,2.0,73.06095398,8.237378224,-99999.0,'11133222,11111222,99999999' 
TABS,ioos:station:wmo:42043:1,2011-02-02T15:00:00Z,28.9818,-94.9186,2.0,76.85347449,5.935562315,-99999.0,'11133222,11111222,99999999' 
TABS,ioos:station:wmo:42043:1,2011-02-02T15:30:00Z,28.9818,-94.9186,2.0,64.18447519,3.077092784,-99999.0,'11133222,11111222,99999999' 
TABS,ioos:station:wmo:42043:1,2011-02-02T16:00:00Z,28.9818,-94.9186,2.0,60.01575112,7.123377008,-99999.0,'11133222,11111222,99999999' 
TABS,ioos:station:wmo:42043:1,2011-02-02T16:30:00Z,28.9818,-94.9186,2.0,64.82801789,10.48578562,-99999.0,'11111222,11111222,99999999' 
TABS,ioos:station:wmo:42043:1,2011-02-02T17:00:00Z,28.9818,-94.9186,2.0,64.43711542,15.08682206,-99999.0,'11111222,11111222,99999999' 
TABS,ioos:station:wmo:42043:1,2011-02-02T17:30:00Z,28.9818,-94.9186,2.0,53.18031598,16.00200612,-99999.0,'11111222,11111222,99999999' 
TABS,ioos:station:wmo:42043:1,2011-02-02T18:00:00Z,28.9818,-94.9186,2.0,46.46785756,19.87622198,-99999.0,'11111222,11111222,99999999' 
TABS,ioos:station:wmo:42043:1,2011-02-02T18:30:00Z,28.9818,-94.9186,2.0,45.52323474,17.81276228,-99999.0,'11111222,11111222,99999999' 
TABS,ioos:station:wmo:42043:1,2011-02-02T19:00:00Z,28.9818,-94.9186,2.0,55.53644617,19.7213894,-99999.0,'11111222,11111222,99999999' 
TABS,ioos:station:wmo:42043:1,2011-02-02T19:30:00Z,28.9818,-94.9186,2.0,53.71454422,21.3751117,-99999.0,'11111222,11111222,99999999' 
TABS,ioos:station:wmo:42043:1,2011-02-02T20:00:00Z,28.9818,-94.9186,2.0,55.70683902,20.2865103,-99999.0,'11111222,11111222,99999999' 
TABS,ioos:station:wmo:42043:1,2011-02-02T20:30:00Z,28.9818,-94.9186,2.0,50.78192053,18.1092076,-99999.0,'11111222,11111222,99999999' 
TABS,ioos:station:wmo:42043:1,2011-02-02T21:00:00Z,28.9818,-94.9186,2.0,49.44003501,18.08549695,-99999.0,'11111222,11111222,99999999' 
TABS,ioos:station:wmo:42043:1,2011-02-02T21:30:00Z,28.9818,-94.9186,2.0,59.1468946,18.6607958,-99999.0,'11111222,11111222,99999999' 
TABS,ioos:station:wmo:42043:1,2011-02-02T22:00:00Z,28.9818,-94.9186,2.0,61.05306443,16.033044,-99999.0,'11111222,11111222,99999999' 
TABS,ioos:station:wmo:42043:1,2011-02-02T22:30:00Z,28.9818,-94.9186,2.0,58.19951924,11.86039207,-99999.0,'11111222,11111222,99999999' 
TABS,ioos:station:wmo:42043:1,2011-02-02T23:00:00Z,28.9818,-94.9186,2.0,60.87775453,12.32854006,-99999.0,'11111222,11111222,99999999' 
TABS,ioos:station:wmo:42043:1,2011-02-02T23:30:00Z,28.9818,-94.9186,2.0,66.78195109,11.56678434,-99999.0,'11111222,11111222,99999999' 
TABS,ioos:station:wmo:42043:1,2011-02-03T00:00:00Z,28.9818,-94.9186,2.0,94.94485473,9.977133857,-99999.0,'11133222,11111222,99999999' 
TABS,ioos:station:wmo:42043:1,2011-02-03T00:30:00Z,28.9818,-94.9186,2.0,103.7887559,7.300390401,-99999.0,'11133222,11111222,99999999' 
TABS,ioos:station:wmo:42043:1,2011-02-03T01:00:00Z,28.9818,-94.9186,2.0,148.8372616,6.918294588,-99999.0,'11133222,11111222,99999999' 
TABS,ioos:station:wmo:42043:1,2011-02-03T01:30:00Z,28.9818,-94.9186,2.0,128.3469505,4.577521163,-99999.0,'11133222,11111222,99999999' 
TABS,ioos:station:wmo:42043:1,2011-02-03T02:00:00Z,28.9818,-94.9186,2.0,187.0263714,4.332539671,-99999.0,'11133222,11111222,99999999' 
TABS,ioos:station:wmo:42043:1,2011-02-03T02:30:00Z,28.9818,-94.9186,2.0,172.8219341,6.722685475,-99999.0,'11133222,11111222,99999999' 
TABS,ioos:station:wmo:42043:1,2011-02-03T03:00:00Z,28.9818,-94.9186,2.0,149.6830802,2.733861738,-99999.0,'11133222,11111222,99999999' 
TABS,ioos:station:wmo:42043:1,2011-02-03T03:30:00Z,28.9818,-94.9186,2.0,148.7856647,7.062379203,-99999.0,'11133222,11111222,99999999' 
TABS,ioos:station:wmo:42043:1,2011-02-03T04:00:00Z,28.9818,-94.9186,2.0,227.4654375,2.958445538,-99999.0,'11133222,11111222,99999999' 
TABS,ioos:station:wmo:42043:1,2011-02-03T04:30:00Z,28.9818,-94.9186,2.0,154.822313,6.464131806,-99999.0,'11133222,11111222,99999999' 
TABS,ioos:station:wmo:42043:1,2011-02-03T05:00:00Z,28.9818,-94.9186,2.0,178.5973514,5.311591099,-99999.0,'11133222,11111222,99999999' 
TABS,ioos:station:wmo:42043:1,2011-02-03T05:30:00Z,28.9818,-94.9186,2.0,166.7967671,3.50258476,-99999.0,'11133222,11111222,99999999' 
TABS,ioos:station:wmo:42043:1,2011-02-03T06:00:00Z,28.9818,-94.9186,2.0,156.9369787,3.880115978,-99999.0,'11133222,11111222,99999999' 
TABS,ioos:station:wmo:42043:1,2011-02-03T06:30:00Z,28.9818,-94.9186,2.0,214.0554902,1.303572016,-99999.0,'11133222,11111222,99999999' 
TABS,ioos:station:wmo:42043:1,2011-02-03T07:00:00Z,28.9818,-94.9186,2.0,75.17794147,3.713569711,-99999.0,'11133222,11111222,99999999' 
TABS,ioos:station:wmo:42043:1,2011-02-03T07:30:00Z,28.9818,-94.9186,2.0,148.6957392,3.464332548,-99999.0,'11133222,11111222,99999999' 
TABS,ioos:station:wmo:42043:1,2011-02-03T08:00:00Z,28.9818,-94.9186,2.0,220.7374768,6.37451959,-99999.0,'11133222,11111222,99999999' 
TABS,ioos:station:wmo:42043:1,2011-02-03T08:30:00Z,28.9818,-94.9186,2.0,229.3255305,8.530797149,-99999.0,'11133222,11111222,99999999' 
TABS,ioos:station:wmo:42043:1,2011-02-03T09:00:00Z,28.9818,-94.9186,2.0,233.0133133,9.840020325,-99999.0,'11133222,11111222,99999999' 
TABS,ioos:station:wmo:42043:1,2011-02-03T09:30:00Z,28.9818,-94.9186,2.0,216.2597674,14.84484085,-99999.0,'11111222,11111222,99999999' 
TABS,ioos:station:wmo:42043:1,2011-02-03T10:00:00Z,28.9818,-94.9186,2.0,208.7360198,18.53242024,-99999.0,'11111222,11111222,99999999' 
TABS,ioos:station:wmo:42043:1,2011-02-03T10:30:00Z,28.9818,-94.9186,2.0,217.9271304,18.20510093,-99999.0,'11111222,11111222,99999999' 
TABS,ioos:station:wmo:42043:1,2011-02-03T11:00:00Z,28.9818,-94.9186,2.0,217.0248443,21.40607858,-99999.0,'11111222,11111222,99999999' 
TABS,ioos:station:wmo:42043:1,2011-02-03T11:30:00Z,28.9818,-94.9186,2.0,221.6184641,25.77648735,-99999.0,'11111222,11111222,99999999' 
TABS,ioos:station:wmo:42043:1,2011-02-03T12:00:00Z,28.9818,-94.9186,2.0,219.7202887,25.89804819,-99999.0,'11111222,11111222,99999999' 
TABS,ioos:station:wmo:42043:1,2011-02-03T12:30:00Z,28.9818,-94.9186,2.0,226.393938,27.02655176,-99999.0,'11111222,11111222,99999999' 
TABS,ioos:station:wmo:42043:1,2011-02-03T13:00:00Z,28.9818,-94.9186,2.0,228.353834,27.0719966,-99999.0,'11111222,11111222,99999999' 
TABS,ioos:station:wmo:42043:1,2011-02-03T13:30:00Z,28.9818,-94.9186,2.0,213.5393964,27.47439535,-99999.0,'11111222,11111222,99999999' 
TABS,ioos:station:wmo:42043:1,2011-02-03T14:00:00Z,28.9818,-94.9186,2.0,230.4939774,31.31312824,-99999.0,'11111222,11111222,99999999' 
TABS,ioos:station:wmo:42043:1,2011-02-03T14:30:00Z,28.9818,-94.9186,2.0,229.9962557,24.84314392,-99999.0,'11111222,11111222,99999999' 
TABS,ioos:station:wmo:42043:1,2011-02-03T15:00:00Z,28.9818,-94.9186,2.0,220.1308718,25.9099614,-99999.0,'11111222,11111222,99999999' 
TABS,ioos:station:wmo:42043:1,2011-02-03T15:30:00Z,28.9818,-94.9186,2.0,229.5658226,20.78419592,-99999.0,'11111222,11111222,99999999' 
TABS,ioos:station:wmo:42043:1,2011-02-03T16:00:00Z,28.9818,-94.9186,2.0,233.6605086,22.02294485,-99999.0,'11111222,11111222,99999999' 
TABS,ioos:station:wmo:42043:1,2011-02-03T16:30:00Z,28.9818,-94.9186,2.0,239.6765816,17.33101555,-99999.0,'11111222,11111222,99999999' 
TABS,ioos:station:wmo:42043:1,2011-02-03T17:00:00Z,28.9818,-94.9186,2.0,250.1490154,16.25590662,-99999.0,'11111222,11111222,99999999' 
TABS,ioos:station:wmo:42043:1,2011-02-03T17:30:00Z,28.9818,-94.9186,2.0,242.7245755,14.07489254,-99999.0,'11111222,11111222,99999999' 
TABS,ioos:station:wmo:42043:1,2011-02-03T18:00:00Z,28.9818,-94.9186,2.0,224.580966,11.6110034,-99999.0,'11111222,11111222,99999999' 
TABS,ioos:station:wmo:42043:1,2011-02-03T18:30:00Z,28.9818,-94.9186,2.0,241.446274,11.21392438,-99999.0,'11111222,11111222,99999999' 
TABS,ioos:station:wmo:42043:1,2011-02-03T19:00:00Z,28.9818,-94.9186,2.0,263.4556155,12.10889343,-99999.0,'11111222,11111222,99999999' 
TABS,ioos:station:wmo:42043:1,2011-02-03T19:30:00Z,28.9818,-94.9186,2.0,254.7701279,11.76310333,-99999.0,'11111222,11111222,99999999' 
TABS,ioos:station:wmo:42043:1,2011-02-03T20:00:00Z,28.9818,-94.9186,2.0,259.4280028,11.71891207,-99999.0,'11111222,11111222,99999999' 
TABS,ioos:station:wmo:42043:1,2011-02-03T20:30:00Z,28.9818,-94.9186,2.0,270.5358787,7.490327096,-99999.0,'11133222,11111222,99999999' 
TABS,ioos:station:wmo:42043:1,2011-02-03T21:00:00Z,28.9818,-94.9186,2.0,244.5999441,9.675231263,-99999.0,'11133222,11111222,99999999' 
TABS,ioos:station:wmo:42043:1,2011-02-03T21:30:00Z,28.9818,-94.9186,2.0,226.0992738,7.369409746,-99999.0,'11133222,11111222,99999999' 
TABS,ioos:station:wmo:42043:1,2011-02-03T22:00:00Z,28.9818,-94.9186,2.0,216.4573135,8.61622307,-99999.0,'11133222,11111222,99999999' 
TABS,ioos:station:wmo:42043:1,2011-02-03T22:30:00Z,28.9818,-94.9186,2.0,239.0997697,15.38343265,-99999.0,'11111222,11111222,99999999' 
TABS,ioos:station:wmo:42043:1,2011-02-03T23:00:00Z,28.9818,-94.9186,2.0,226.7507559,15.9668563,-99999.0,'11111222,11111222,99999999' 
TABS,ioos:station:wmo:42043:1,2011-02-03T23:30:00Z,28.9818,-94.9186,2.0,229.6413202,17.65070537,-99999.0,'11111222,11111222,99999999' 
TABS,ioos:station:wmo:42043:1,2011-02-04T00:00:00Z,28.9818,-94.9186,2.0,237.3395865,14.65754754,-99999.0,'11111222,11111222,99999999' 
TABS,ioos:station:wmo:42043:1,2011-02-04T00:30:00Z,28.9818,-94.9186,2.0,235.2556266,17.7922455,-99999.0,'11111222,11111222,99999999' 
TABS,ioos:station:wmo:42043:1,2011-02-04T01:00:00Z,28.9818,-94.9186,2.0,214.8464648,17.44887675,-99999.0,'11111222,11111222,99999999' 
TABS,ioos:station:wmo:42043:1,2011-02-04T01:30:00Z,28.9818,-94.9186,2.0,234.4860531,11.06910114,-99999.0,'11111222,11111222,99999999' 
TABS,ioos:station:wmo:42043:1,2011-02-04T02:00:00Z,28.9818,-94.9186,2.0,236.0350127,13.88985241,-99999.0,'11111222,11111222,99999999' 
TABS,ioos:station:wmo:42043:1,2011-02-04T02:30:00Z,28.9818,-94.9186,2.0,237.3947394,13.47331065,-99999.0,'11111222,11111222,99999999' 
TABS,ioos:station:wmo:42043:1,2011-02-04T03:00:00Z,28.9818,-94.9186,2.0,240.7034759,10.13642935,-99999.0,'11111222,11111222,99999999' 
TABS,ioos:station:wmo:42043:1,2011-02-04T03:30:00Z,28.9818,-94.9186,2.0,251.5646734,10.18253407,-99999.0,'11111222,11111222,99999999' 
TABS,ioos:station:wmo:42043:1,2011-02-04T04:00:00Z,28.9818,-94.9186,2.0,232.8479367,10.97813281,-99999.0,'11111222,11111222,99999999' 
TABS,ioos:station:wmo:42043:1,2011-02-04T04:30:00Z,28.9818,-94.9186,2.0,246.8069685,12.69601906,-99999.0,'11111222,11111222,99999999' 
TABS,ioos:station:wmo:42043:1,2011-02-04T05:00:00Z,28.9818,-94.9186,2.0,247.9941287,7.8196803,-99999.0,'11133222,11111222,99999999' 
TABS,ioos:station:wmo:42043:1,2011-02-04T05:30:00Z,28.9818,-94.9186,2.0,250.650367,10.5032614,-99999.0,'11111222,11111222,99999999' 
TABS,ioos:station:wmo:42043:1,2011-02-04T06:00:00Z,28.9818,-94.9186,2.0,238.4846044,7.307892993,-99999.0,'11133222,11111222,99999999' 
TABS,ioos:station:wmo:42043:1,2011-02-04T06:30:00Z,28.9818,-94.9186,2.0,233.7028383,8.598430089,-99999.0,'11133222,11111222,99999999' 
TABS,ioos:station:wmo:42043:1,2011-02-04T07:00:00Z,28.9818,-94.9186,2.0,228.5849502,11.307555,-99999.0,'11111222,11111222,99999999' 
TABS,ioos:station:wmo:42043:1,2011-02-04T07:30:00Z,28.9818,-94.9186,2.0,212.0202876,11.99493643,-99999.0,'11111222,11111222,99999999' 
TABS,ioos:station:wmo:42043:1,2011-02-04T08:00:00Z,28.9818,-94.9186,2.0,241.4585884,16.47172729,-99999.0,'11111222,11111222,99999999' 
TABS,ioos:station:wmo:42043:1,2011-02-04T08:30:00Z,28.9818,-94.9186,2.0,242.7862936,15.81001265,-99999.0,'11111222,11111222,99999999' 
TABS,ioos:station:wmo:42043:1,2011-02-04T09:00:00Z,28.9818,-94.9186,2.0,220.8726011,16.70274828,-99999.0,'11111222,11111222,99999999' 
TABS,ioos:station:wmo:42043:1,2011-02-04T09:30:00Z,28.9818,-94.9186,2.0,223.36984,20.63465289,-99999.0,'11111222,11111222,99999999' 
TABS,ioos:station:wmo:42043:1,2011-02-04T10:00:00Z,28.9818,-94.9186,2.0,227.8572747,25.24682158,-99999.0,'11111222,11111222,99999999' 
TABS,ioos:station:wmo:42043:1,2011-02-04T10:30:00Z,28.9818,-94.9186,2.0,227.5412493,25.03499351,-99999.0,'11111222,11111222,99999999' 
TABS,ioos:station:wmo:42043:1,2011-02-04T11:00:00Z,28.9818,-94.9186,2.0,221.9713405,24.62756586,-99999.0,'11111222,11111222,99999999' 
TABS,ioos:station:wmo:42043:1,2011-02-04T11:30:00Z,28.9818,-94.9186,2.0,228.5802217,24.00363306,-99999.0,'11111222,11111222,99999999' 
TABS,ioos:station:wmo:42043:1,2011-02-04T12:00:00Z,28.9818,-94.9186,2.0,223.7471597,24.58490594,-99999.0,'11111222,11111222,99999999' 
TABS,ioos:station:wmo:42043:1,2011-02-04T12:30:00Z,28.9818,-94.9186,2.0,217.8260569,24.8014556,-99999.0,'11111222,11111222,99999999' 
TABS,ioos:station:wmo:42043:1,2011-02-04T13:00:00Z,28.9818,-94.9186,2.0,224.9134391,28.18530823,-99999.0,'11111222,11111222,99999999' 
TABS,ioos:station:wmo:42043:1,2011-02-04T13:30:00Z,28.9818,-94.9186,2.0,220.992931,29.65074873,-99999.0,'11111222,11111222,99999999' 
TABS,ioos:station:wmo:42043:1,2011-02-04T14:00:00Z,28.9818,-94.9186,2.0,226.04869,35.91997355,-99999.0,'11111222,11111222,99999999' 
TABS,ioos:station:wmo:42043:1,2011-02-04T14:30:00Z,28.9818,-94.9186,2.0,229.9478804,27.70871704,-99999.0,'11111222,11111222,99999999' 
TABS,ioos:station:wmo:42043:1,2011-02-04T15:00:00Z,28.9818,-94.9186,2.0,236.0113305,27.17235728,-99999.0,'11111222,11111222,99999999' 
TABS,ioos:station:wmo:42043:1,2011-02-04T15:30:00Z,28.9818,-94.9186,2.0,238.6657886,24.69116644,-99999.0,'11111222,11111222,99999999' 
TABS,ioos:station:wmo:42043:1,2011-02-04T16:00:00Z,28.9818,-94.9186,2.0,235.5564846,22.57824838,-99999.0,'11111222,11111222,99999999' 